CDT,Max TemperatureF,Mean TemperatureF,Min TemperatureF,Max Dew PointF,MeanDew PointF,Min DewpointF,Max Humidity, Mean Humidity, Min Humidity, Max Sea Level PressureIn, Mean Sea Level PressureIn, Min Sea Level PressureIn, Max VisibilityMiles, Mean VisibilityMiles, Min VisibilityMiles, Max Wind SpeedMPH, Mean Wind SpeedMPH, Max Gust SpeedMPH,PrecipitationIn, CloudCover, Events, WindDirDegrees
2013-4-1,54,46,38,46,33,26,100,69,38,30.22,30.10,29.93,10,9,2,21,10,25,0.00,1,,8
2013-4-2,46,40,33,30,24,16,75,53,31,30.35,30.29,30.23,10,10,10,14,5,17,0.00,2,,11
2013-4-3,54,43,31,27,24,20,72,50,28,30.35,30.28,30.22,10,10,10,21,9,26,0.00,0,,59
2013-4-4,59,47,34,36,28,24,82,55,28,30.21,30.09,30.01,10,10,10,13,4,18,0.00,3,,33
2013-4-5,70,50,30,41,34,27,89,59,28,30.16,30.10,30.05,10,10,9,16,4,20,0.00,0,,310
2013-4-6,72,57,42,44,40,37,83,56,29,30.08,29.98,29.85,10,10,8,28,14,41,0.00,0,,182
2013-4-7,74,64,53,57,52,45,78,65,52,29.96,29.92,29.88,10,10,8,23,11,32,0.00,2,,192
2013-4-8,76,67,58,58,55,51,86,68,50,29.91,29.87,29.83,10,10,10,25,13,32,T,5,,183
2013-4-9,82,71,60,64,60,55,84,68,51,29.98,29.91,29.85,10,10,10,24,13,33,0.00,4,,172
2013-4-10,84,74,64,66,64,62,93,74,54,29.89,29.78,29.66,10,8,2,30,16,39,0.60,5,Rain-Thunderstorm,182
2013-4-11,66,52,38,64,50,33,93,79,65,29.79,29.68,29.62,10,9,3,24,9,31,0.13,7,Rain,263
2013-4-12,61,48,35,40,35,31,92,64,36,30.06,29.88,29.78,10,10,10,21,9,25,0.00,1,,276
2013-4-13,62,48,33,45,38,31,96,71,46,30.12,30.04,29.94,10,10,10,12,3,14,0.00,0,,199
2013-4-14,74,60,46,55,48,39,82,63,44,29.94,29.82,29.73,10,10,10,26,11,35,0.00,2,,154
2013-4-15,78,68,57,62,57,51,84,69,54,29.92,29.85,29.80,10,10,10,20,9,28,0.00,5,,177
2013-4-16,72,65,57,61,57,53,90,78,66,30.08,30.01,29.88,10,9,6,14,7,16,T,4,,2
2013-4-17,84,69,54,70,63,52,93,74,55,30.08,29.97,29.79,10,8,4,23,9,30,0.00,4,Thunderstorm,176
2013-4-18,76,60,44,66,59,39,93,79,64,29.79,29.69,29.63,10,6,1,32,19,46,2.17,7,Rain-Thunderstorm,227
2013-4-19,53,45,37,36,32,27,79,59,38,30.11,29.94,29.79,10,10,10,22,11,31,0.00,6,,275
2013-4-20,59,46,33,38,33,30,100,67,33,30.32,30.23,30.12,10,10,10,9,2,12,0.00,0,,54
2013-4-21,66,54,41,44,36,31,71,54,37,30.41,30.33,30.24,10,10,10,12,5,15,0.00,0,,88
2013-4-22,72,56,40,50,44,35,86,64,41,30.27,30.15,30.03,10,10,10,16,6,21,0.00,0,,153
2013-4-23,71,58,45,60,52,41,89,72,55,30.05,29.96,29.83,10,9,2,29,12,37,0.07,6,Rain,183
2013-4-24,55,47,38,41,37,31,89,65,41,30.29,30.12,29.96,10,10,5,22,9,26,0.09,6,Rain,329
2013-4-25,66,50,33,44,39,33,100,69,37,30.37,30.32,30.29,10,8,2,10,4,13,0.00,0,,172
2013-4-26,52,50,47,49,47,40,89,76,63,30.44,30.34,30.29,10,7,2,14,4,18,0.18,7,Rain,95
2013-4-27,58,54,50,56,52,48,93,90,86,30.28,30.06,29.92,10,5,1,15,6,20,0.41,8,Rain-Thunderstorm,65
2013-4-28,62,56,50,54,52,48,100,84,67,29.97,29.94,29.90,10,10,10,10,5,13,0.00,7,,256
2013-4-29,73,59,45,60,52,45,100,83,66,30.01,29.95,29.87,10,5,0,9,7,12,0.00,2,Fog,162
2013-4-30,79,66,53,61,57,52,90,69,48,29.97,29.92,29.88,10,10,10,15,5,22,0.00,0,,168